Port Austin, MI

7:07 AM EST on February 25, 2017 (GMT -0500)
Port Hope

Weather History for KP58 - August, 2014

Change the Weather History Date:

Friday, August 22, 2014

  Actual Average Record
Temperature  
Mean Temperature 64 °F -  
Max Temperature 69 °F 72 °F 86 °F (2007)
Min Temperature 59 °F 58 °F 52 °F (2004)
Degree Days  
Heating Degree Days 1    
Growing Degree Days 14 (Base 50)    
Moisture  
Dew Point 62 °F    
Average Humidity 91    
Maximum Humidity 97    
Minimum Humidity 81    
Precipitation  
Precipitation 0.00 in - - ()
Sea Level Pressure  
Sea Level Pressure 30.00 in    
Wind  
Wind Speed 4 mph (ENE)    
Max Wind Speed 10 mph    
Max Gust Speed -    
Averages and records for this station are not official NWS values.
T = Trace of Precipitation, MM = Missing Value Source: NWS Daily Summary

Daily Weather History Graph

Daily Weather History Graph

Search for Another Location

Airport or City:

Trip Planner

Search our weather history database for the weather conditions in past years. The results will help you decide how hot, cold, wet, or windy it might be!

Date:

Astronomy

Aug. 22, 2014 Rise Set
Actual Time 6:43 AM EDT 8:24 PM EDT
Civil Twilight 6:12 AM EDT 8:54 PM EDT
Nautical Twilight 5:35 AM EDT 9:31 PM EDT
Astronomical Twilight 4:54 AM EDT 10:11 PM EDT
Moon 4:01 AM EDT (8/22) 6:33 PM EDT (8/22)
Length of Visible Light 14h 42m
Length of Day
13h 41m
Waning Crescent, 8% of the Moon is Illuminated
Aug 22
Waning Crescent
Aug 25
New
Sep 2
First Quarter
Sep 8
Full
Sep 15
Last Quarter

Hourly Weather History & Observations

Time (EDT) Temp. Dew Point Humidity Pressure Visibility Wind Dir Wind Speed Gust Speed Precip Events Conditions
12:51 AM 61.0 °F 59.0 °F 93% 29.99 in - WSW 3.5 mph - N/A   Unknown
1:51 AM 60.1 °F 57.9 °F 93% 29.98 in - Calm Calm - N/A   Unknown
2:51 AM 59.0 °F 57.0 °F 93% 29.97 in - Calm Calm - N/A   Unknown
3:51 AM 60.1 °F 57.9 °F 93% 29.96 in - Calm Calm - N/A   Unknown
4:51 AM 64.9 °F 63.0 °F 93% 29.95 in - ENE 8.1 mph - N/A   Unknown
5:51 AM 64.9 °F 63.0 °F 93% 29.95 in - ENE 6.9 mph - N/A   Unknown
6:51 AM 64.9 °F 62.1 °F 90% 29.97 in - East 9.2 mph - N/A   Unknown
7:51 AM 64.0 °F 62.1 °F 93% 29.99 in - ESE 10.4 mph - N/A   Unknown
8:51 AM 64.0 °F 62.1 °F 93% 30.01 in - SE 5.8 mph - N/A   Unknown
9:51 AM 64.0 °F 62.1 °F 93% 30.01 in - East 3.5 mph - N/A   Unknown
10:51 AM 64.9 °F 62.1 °F 90% 30.00 in - East 5.8 mph - N/A   Unknown
11:51 AM 66.0 °F 62.1 °F 87% 30.00 in - ESE 3.5 mph - N/A   Unknown
12:51 PM 66.0 °F 62.1 °F 87% 30.01 in - NE 3.5 mph - N/A   Unknown
1:51 PM 68.0 °F 63.0 °F 84% 30.01 in - NNE 4.6 mph - N/A   Unknown
2:51 PM 69.1 °F 63.0 °F 81% 30.01 in - NNE 6.9 mph - N/A   Unknown
3:51 PM 68.0 °F 63.0 °F 84% 29.99 in - NE 8.1 mph - N/A   Unknown
4:51 PM 64.9 °F 63.0 °F 93% 30.00 in - NNE 9.2 mph - N/A   Unknown
5:51 PM 64.0 °F 62.1 °F 93% 30.01 in - NE 3.5 mph - N/A   Unknown
6:51 PM 64.0 °F 62.1 °F 93% 30.01 in - ENE 4.6 mph - N/A   Unknown
7:51 PM 63.0 °F 62.1 °F 97% 30.02 in - Calm Calm - N/A   Unknown
8:51 PM 63.0 °F 62.1 °F 97% 30.02 in - NNE 3.5 mph - N/A   Unknown
9:51 PM 64.9 °F 62.1 °F 90% 30.03 in - NE 5.8 mph - N/A   Unknown
10:51 PM 64.9 °F 62.1 °F 90% 30.03 in - NNE 5.8 mph - N/A   Unknown
11:51 PM 64.9 °F 63.0 °F 93% 30.03 in - NE 6.9 mph - N/A   Unknown